Location: Newark
(35.6799°N, 139.7636°E)
Time: 06:11:49
(UTC+00:00)

Explorer 7 - Pass Details

Date: 13 December 2019
Orbit: 485 x 679 km, 50.3° (Epoch: 24 January)

Event Time Altitude Azimuth Distance (km) Brightness Sun altitude
Rises 05:21:34 0° 240° (WSW) 2,918 11.8 19.2°
Reaches altitude 10° 05:23:52 10° 244° (WSW) 2,038 11.2 18.9°
Maximum altitude 05:28:32 59° 324° (NW) 766 7.7 18.3°
Drops below altitude 10° 05:33:23 10° 44° (NE) 2,112 9.3 17.6°
Sets 05:35:48 0° 48° (NE) 3,034 10.0 17.3°
